Location: Pasadena-CA
(34.1440°N, 118.1100°W)
Time: 21:19:22
(UTC-07:00)

FALCONSAT 3 - Pass Details

Date: 04 July 2022
Orbit: 392 x 398 km, 35.4° (Epoch: 17 August)

Event Time Altitude Azimuth Distance (km) Brightness Sun altitude
Rises 21:35:42 0° 274° (W) 2,335 ? -15.6°
Reaches altitude 10° 21:37:50 10° 277° (W) 1,470 ? -16.0°
Maximum altitude 21:41:10 68° 0° (N) 442 ? -16.5°
Enters shadow 21:42:40 29° 77° (ENE) 769 ? -16.7°
